Location: Caltech
(34.1382°N, 118.1253°W)
Time: 13:22:01
(UTC-08:00)

Iridium 21 - Visible Passes

Search period start: 13 February 2016 00:00
Search period end: 23 February 2016 00:00
Orbit: 776 x 779 km, 86.4° (Epoch: 13 February)

Date Brightness Start Highest point End Pass type
(mag) Time Alt. Az. Time Alt. Az. Time Alt. Az.
13 Feb 7.8 05:51:58 10° NNE 05:56:27 28° E 06:00:54 10° SE visible
13 Feb 5.4 18:44:06 10° S 18:49:15 67° E 18:54:26 10° N visible
13 Feb 8.7 20:29:07 10° W 20:30:25 11° WNW 20:31:43 10° WNW visible
14 Feb 8.5 05:19:46 10° NE 05:22:41 15° ENE 05:25:34 10° ESE visible
14 Feb 6.1 18:11:12 10° SSE 18:15:52 34° E 18:20:32 10° NNE visible
14 Feb 7.9 19:52:38 10° SW 19:56:36 22° W 20:00:34 10° NNW visible
15 Feb 6.8 19:17:59 10° SSW 19:22:53 41° W 19:27:49 10° NNW visible
16 Feb 7.0 05:51:41 10° NNE 05:56:38 42° E 06:01:32 10° SSE visible
16 Feb 5.6 18:44:07 10° S 18:49:19 82° W 18:54:33 10° N visible
17 Feb 8.2 05:18:55 10° NNE 05:22:56 22° E 05:26:56 10° SE visible
17 Feb 5.7 18:10:50 10° SSE 18:15:51 51° E 18:20:54 10° NNE visible
17 Feb 8.5 19:54:03 10° WSW 19:56:51 15° WNW 19:59:40 10° NW visible
18 Feb 8.8 04:47:36 10° ENE 04:49:07 11° ENE 04:50:37 10° E visible
18 Feb 7.6 19:18:40 10° SW 19:23:04 28° W 19:27:31 10° NNW visible
19 Feb 6.1 05:51:35 10° N 05:56:46 64° E 06:01:55 10° SSE visible
19 Feb 6.3 18:44:21 10° SSW 18:49:25 54° W 18:54:32 10° N visible
20 Feb 7.4 05:18:28 10° NNE 05:23:09 32° E 05:27:48 10° SE visible
20 Feb 5.5 18:10:42 10° S 18:15:54 78° E 18:21:07 10° N visible
21 Feb 8.4 04:46:02 10° NE 04:49:24 17° ENE 04:52:46 10° ESE visible
21 Feb 8.3 19:19:41 10° SW 19:23:18 19° W 19:26:57 10° NW visible
22 Feb 5.5 05:51:37 10° N 05:56:51 86° W 06:02:04 10° S visible
22 Feb 7.2 18:44:49 10° SSW 18:49:35 36° W 18:54:22 10° NNW visible
